ZA-AEROSAT (42713 NORAD) Tracking and Keplerian Element Data

This shows tracking and keplerian element data for the satellite.

Feedback or suggestion? Click here.




ElementValue
Catalog42713
NameZA-AEROSAT
Epoch Orbit6629
Epoch Day198.52795247
Epoch Year2018
RAAN204.604
Inclination51.6332
Eccentricity0.0001881
Argument of Perigee325.679
Mean Anonmoly34.4085
Mean Motion15.6891538
Decay Rate0.0001747
L11 42713U 98067LU 18198.52795247 .00017470 00000-0 15343-3 0 9993
L22 42713 51.6332 204.6040 0001881 325.6790 34.4085 15.68915380 66298

Live tracking and technical data element details for ZA-AEROSAT (NORAD 42713). ZA-AEROSAT can be tracked NOW for your location showing map with azimuth and elevation plus other details from your city location.

Track the satellite on the map from your city or location and see movement details for azimuth, elevation, latitude, longitude, range, height, and movement on the map or in text.







IsCatalogInMostPopularTable: catalog: 42713, numindb: 92
Update: records affected: 1



GetName: 42713 ZA-AEROSAT

Hit Count: updated at: Fri, 20 Jul 2018 02:44:56 GMT